Location: Wellington
(41.3000°S, 174.7830°E)
Time: 18:33:49
(UTC+13:00)

Meteor 1-26 Rocket - Pass Details

Date: 24 January 2019
Orbit: 818 x 917 km, 81.3° (Epoch: 18 October)

Event Time Altitude Azimuth Distance (km) Brightness Sun altitude
Exits shadow 22:55:51 30° 10° (N) 1,559 5.1 -19.4°
Maximum altitude 22:58:50 68° 84° (E) 956 4.3 -19.7°
Drops below altitude 10° 23:04:34 10° 165° (SSE) 2,537 7.2 -20.4°
Sets 23:07:00 0° 167° (SSE) 3,466 8.0 -20.7°
